Other Public Products
Issued by NWS Charleston, SC

Current Version | Previous Version | Text Only | Print | Product List | Glossary Off
Versions: 1 2 3 4 5 6 7 8 9 10 11 12 13 14 15 16 17 18 19 20 21 22 23 24 25 26 27 28 29 30 31 32 33 34 35 36 37 38 39 40 41 42 43 44 45 46 47 48 49 50

000
FPUS82 KCHS 250212
OPUCHS

TEST...KCHS/KSAV Gateway Observations...TEST
National Weather Service Charleston SC
1000 PM EDT MON APR 24 2017

NOTE: "fair" indicates few or no clouds below 12,000 feet with no
significant weather and/or obstructions to visibility.

SCZ050-WAZ558-NCZ071-TXZ119-213-PAZ071-DCZ001-FLZ074-172-MI076-
NYZ176-178-MAZ016-IL014-TNZ027-NJZ106-GAZ044-MD014-250300-

...Gateway Observations for Charleston International...

CITY           SKY/WX    TMP DP  RH WIND       PRES   REMARKS
Chas Airport   PTCLDY    64  59  83 W10       29.63R
Seattle        MOSUNNY   53  45  74 SW8       29.81R
Charlotte      CLOUDY    54  51  90 N15       29.70F
Dallas DFW     PTCLDY    71  50  47 S13       29.64F
Dallas Love    PTCLDY    72  48  42 S16       29.66F
Philladelphia  CLOUDY    55  39  54 E14G24    30.08S
Wash National  CLOUDY    55  50  83 NE17      30.01F
Baltimore      LGT RAIN  53  47  79 E21G32    30.03R
Miami          CLEAR     75  63  66 W9        29.81R
Detroit        CLOUDY    58  39  49 E12G21    29.93S
Newark         CLOUDY    57  37  47 E7        30.13R
Laguardia      CLOUDY    53  46  77 NE9       30.14R
J F K          CLOUDY    54  44  69 E8        30.14S
Boston Logan   MOCLDY    54  41  61 S6        30.19R
Ft. Lauderdale CLEAR     75  61  61 W15G21    29.79R
Chicago O`Hare PTCLDY    58  32  37 E6        29.77R
Chicago Midway PTCLDY    59  37  44 E9        29.77F
Houston Bush   PTCLDY    71  52  50 S10       29.77S
Houston Hobby  MOCLDY    68  53  58 S9        29.78S
Nashville      PTCLDY    64  56  75 CALM      29.77S
Atlanta        MOCLDY    61  58  90 NW10      29.73S

$$

GAZ044-118-TXZ119-213-NCZ071-DCZ001-MDZ014-506-PAZ021-071-NJZ106-
NYZ176-178-MAZ106-OHZ011-021-055-MIZ076-KYZ091-ILZ014-INZ047-
MNZ060-ONZ431-250300-

...Gateway Observations for Savannah International...

CITY           SKY/WX    TMP DP  RH WIND       PRES   REMARKS
Savannah Arpt  MOCLDY    64  55  72 NW12      29.68S
Atlanta        MOCLDY    61  58  90 NW10      29.73S
Charlotte      CLOUDY    54  51  90 N15       29.70F
Dallas DFW     PTCLDY    71  50  47 S13       29.64F
Houston Bush   PTCLDY    71  52  50 S10       29.77S
Wash National  CLOUDY    55  50  83 NE17      30.01F
Wash Dulles    LGT RAIN  52  48  86 NE8       30.02S
Baltimore      LGT RAIN  53  47  79 E21G32    30.03R
Philadelphia   CLOUDY    55  39  54 E14G24    30.08S
Newark         CLOUDY    57  37  47 E7        30.13R
Laguardia      CLOUDY    53  46  77 NE9       30.14R
J F K          CLOUDY    54  44  69 E8        30.14S
Boston         MOCLDY    54  41  61 S6        30.19R
Pittsburg      CLOUDY    54  45  71 E10       29.97F
Akron          CLOUDY    57  43  59 E16       29.96S
Cleveland      CLOUDY    62  43  49 SE15G22   29.96R
Cincinnati     CLOUDY    63  52  67 E15       29.81S
Columbus       CLOUDY    57  48  71 E10       29.87F
Detroit        CLOUDY    58  39  49 E12G21    29.93S
Chicago O`Hare PTCLDY    58  32  37 E6        29.77R
Minneapolis    CLOUDY    66  33  29 SE12      29.55F
Indianapolis   PTCLDY    67  51  56 E15       29.76F
Toronto Canada PTCLDY    48  32  53 E7        30.08R

$$




USA.gov is the U.S. government's official web portal to all federal, state and local government web resources and services.